Weather observations for the past three days for
Austin City, Austin Camp Mabry
Metric (Imperial)
Date Time (cdt) Wind (kph) Vis. (km) Weather Sky Cond. Temperature (ºC) Relative Humidity Wind Chill (°C) Heat Index (°C) Pressure Precipitation (cm)
Air Dwpt 6 hour altimeter (cm) sea level (mb) 1 hr 3 hr 6 hr
Max. Min.
21 12:51 Vrbl 7 16.09 Mostly Cloudy BKN038 31.1 21.7 31.7 25 57% 34 76.56 1019.3
21 11:51 Vrbl 6 16.09 A Few Clouds FEW030 FEW038 30.6 22.2 61% 34 76.58 1019.7
21 10:51 Vrbl 7 16.09 Mostly Cloudy FEW020 SCT029 BKN039 28.9 22.8 70% 32 76.61 1020.0
21 09:51 Vrbl 9 16.09 A Few Clouds FEW014 FEW031 27.8 23.3 77% 31 76.61 1019.9
21 08:51 Vrbl 7 16.09 Mostly Cloudy BKN012 26.7 23.3 82% 29 76.58 1019.6
21 07:51 Calm 16.09 Mostly Cloudy BKN009 BKN016 25 22.8 88% 26 76.56 1019.4
21 06:51 Calm 16.09 Overcast OVC015 25 23.3 25.6 24.4 90% 26 76.53 1018.9
21 05:51 E 6 16.09 Mostly Cloudy SCT013 BKN019 25 23.3 90% 26 76.5 1018.5
21 04:51 Calm 16.09 Overcast BKN014 OVC020 25 22.8 88% 26 76.5 1018.4
21 03:51 Calm 16.09 Mostly Cloudy BKN015 25 22.8 88% 26 76.5 1018.4
21 01:51 Calm 16.09 Fair CLR 25 22.8 88% 26 76.56 1019.3
21 00:51 E 6 16.09 Fair CLR 25 22.8 29.4 25 88% 26 76.56 1019.4 0.2
20 23:51 Calm 16.09 Fair CLR 25.6 22.8 85% 27 76.56 1019.3
20 22:51 Calm 16.09 Fair CLR 26.1 22.8 82% 28 76.53 1018.8
20 21:51 Vrbl 6 16.09 Fair CLR 26.1 23.3 85% 28 76.45 1018.2 0.2
20 20:51 E 6 16.09 Mostly Cloudy BKN055 26.1 23.3 85% 28 76.43 1017.6
20 19:51 NE 6 16.09 A Few Clouds FEW075 26.1 23.3 85% 28 76.38 1017.1 0.2
20 18:51 Vrbl 6 16.09 Mostly Cloudy SCT042 BKN049 BKN070 29.4 22.8 32.8 29.4 68% 33 76.33 1016.3
20 17:51 E 13 G 33 16.09 Mostly Cloudy FEW042 SCT050 BKN110 31.1 21.1 55% 34 76.33 1016.3
20 16:51 Calm 16.09 Partly Cloudy FEW040 SCT110 32.2 21.7 54% 36 76.33 1016.2
20 15:51 E 15 16.09 Partly Cloudy FEW033 SCT100 32.2 22.8 58% 37 76.38 1016.9
20 14:51 E 13 G 31 16.09 Mostly Cloudy SCT032 BKN045 BKN070 30 22.2 63% 33 76.43 1017.5
20 12:51 NE 15 16.09 Mostly Cloudy BKN024 BKN040 BKN055 30 23.3 30 24.4 67% 34 76.5 1018.6 0.03
20 11:51 Calm 16.09 Mostly Cloudy BKN019 BKN034 28.9 23.3 72% 33 76.5 1018.6
20 10:51 Vrbl 9 16.09 Overcast BKN016 OVC023 27.8 23.3 77% 31 76.5 1018.6
20 09:51 Calm 16.09 Overcast BKN014 OVC020 26.1 23.3 85% 28 76.5 1018.7 0.03
20 08:51 Calm 12.87 Overcast OVC011 25.6 23.9 90% 27 76.45 1018.3 0.03
20 07:51 Vrbl 7 12.87 Mostly Cloudy FEW009 BKN031 BKN042 25 23.3 90% 26 76.4 1017.4
20 06:51 Vrbl 9 9.66 Light Rain Fog/Mist FEW009 BKN031 OVC040 24.4 23.3 24.4 23.9 94% 24 76.35 1016.8 0.56
20 05:51 Vrbl 7 12.87 Overcast BKN021 OVC035 24.4 22.8 91% 24 76.3 1016.2
20 04:51 NE 7 11.27 Overcast FEW009 OVC021 24.4 22.8 91% 24 76.28 1015.9
20 03:51 Calm 9.66 Fog/Mist FEW019 SCT120 24.4 22.8 91% 24 76.28 1015.8 0.56
20 02:51 NE 7 11.27 Mostly Cloudy FEW023 BKN030 BKN038 23.9 22.8 94% 23 76.28 1015.9 0.05
20 01:51 NE 13 4.83 Rain Fog/Mist FEW017 SCT025 OVC032 23.9 22.8 94% 23 76.3 1016.3 0.51
20 00:51 N 11 12.87 Light Rain FEW039 BKN090 23.9 22.8 23.9 23.3 94% 23 76.33 1016.2 2.44
19 23:51 Vrbl 11 14.48 Overcast FEW048 BKN080 OVC095 23.9 22.2 90% 23 76.35 1016.6 0.03
19 22:51 Vrbl 6 6.44 Rain Fog/Mist FEW021 SCT033 OVC042 23.9 22.2 90% 23 76.35 1016.7 0.56
19 20:51 N 17 G 30 4.02 Heavy Rain Fog/Mist FEW024 OVC036 23.3 22.2 94% 76.3 1016.0 0.86
19 19:51 N 9 6.44 Rain Fog/Mist SCT050 BKN070 OVC100 23.3 21.7 91% 76.23 1015.3 0.1
19 18:51 Vrbl 11 14.48 Light Rain FEW015 BKN080 OVC100 23.3 21.7 28.3 23.3 91% 76.2 1014.8 0.08 0.74
19 17:51 N 11 8.05 Light Rain Fog/Mist FEW013 BKN045 OVC060 23.9 22.2 90% 23 76.17 1014.5 0.25
19 16:51 Vrbl 9 8.05 Rain Fog/Mist FEW060 OVC080 24.4 22.2 88% 25 76.23 1015.0 0.13
19 14:51 Calm 9.66 Light Rain Fog/Mist SCT017 BKN039 OVC050 25 22.8 88% 26 76.23 1014.9 0.05
19 13:51 Calm 11.27 Light Rain FEW014 SCT021 OVC035 26.1 23.3 85% 28 76.23 1014.8 0.08
19 12:51 Vrbl 9 G 37 16.09 Mostly Cloudy SCT022 BKN030 28.3 21.7 28.3 24.4 67% 31 76.2 1014.6
19 11:51 Vrbl 11 G 30 16.09 Overcast BKN021 OVC028 27.2 21.7 72% 29 76.2 1014.5
19 10:51 Calm 16.09 Overcast BKN020 OVC026 27.2 21.7 72% 29 76.15 1013.9
19 09:51 Calm 16.09 Overcast OVC015 26.1 21.7 77% 28 76.15 1013.9
19 08:51 NE 6 16.09 Overcast BKN013 OVC040 25.6 21.7 79% 27 76.12 1013.6
19 07:51 Vrbl 6 16.09 Overcast FEW023 SCT029 OVC035 24.4 21.1 82% 25 76.07 1012.9
19 06:51 Vrbl 6 16.09 Overcast FEW016 BKN023 OVC035 24.4 21.1 26.1 24.4 82% 25 76.05 1012.3
19 05:51 Vrbl 7 16.09 Overcast SCT027 OVC035 24.4 20.6 79% 25 76 1011.7
19 04:51 Calm 16.09 Overcast OVC025 24.4 20.6 79% 25 75.95 1011.0
19 03:51 Vrbl 6 16.09 A Few Clouds FEW080 24.4 20 77% 25 75.92 1010.8
19 02:51 Calm 16.09 A Few Clouds FEW029 25 20 74% 26 75.95 1011.0
19 01:51 Vrbl 7 16.09 Mostly Cloudy BKN031 25.6 19.4 69% 27 75.97 1011.5
19 00:51 E 6 16.09 Fair CLR 26.1 20 32.2 26.1 69% 27 76 1011.5
18 23:51 E 9 16.09 Fair CLR 26.7 20 67% 28 76 1011.8
18 22:51 SE 15 16.09 Fair CLR 27.2 20 65% 29 75.95 1011.2
18 21:51 SE 13 16.09 Fair CLR 28.3 18.9 57% 30 75.92 1010.6
18 20:51 SE 19 G 37 16.09 Fair CLR 29.4 19.4 55% 31 75.84 1009.5
18 19:51 SE 20 G 44 16.09 A Few Clouds FEW046 FEW060 31.1 20.6 54% 34 75.79 1009.1
18 17:51 SE 15 G 43 16.09 Mostly Cloudy FEW055 BKN070 31.7 19.4 48% 33 75.74 1008.4
18 16:51 SE 13 G 33 16.09 A Few Clouds FEW065 35 18.3 37% 36 75.72 1007.7
18 15:51 SE 17 G 35 16.09 A Few Clouds FEW060 34.4 18.3 38% 36 75.74 1008.1
18 14:51 E 19 G 33 16.09 A Few Clouds FEW049 34.4 19.4 41% 36 75.77 1008.6
18 13:51 SE 15 G 28 16.09 Partly Cloudy FEW043 SCT070 32.2 20.6 50% 35 75.82 1009.4
Date Time (cdt) Wind (kph) Vis. (km) Weather Sky Cond. Air Dwpt Max. Min. Relative Humidity Wind Chill (°C) Heat Index (°C) altimeter (cm) sea level (mb) 1 hr 3 hr 6 hr
6 hour
Temperature (ºC) Pressure Precipitation (cm)